Weather History for Geneva, Switzerland

Change the Weather History Date:

Saturday, May 18, 2013

  Actual Average Record
Temperature  
Mean Temperature 50 °F -  
Max Temperature 60 °F 68 °F 78 °F (2004)
Min Temperature 40 °F 49 °F 40 °F (2013)
Degree Days  
Heating Degree Days 15    
Moisture  
Dew Point 45 °F    
Average Humidity 78    
Maximum Humidity 100    
Minimum Humidity 49    
Precipitation  
Precipitation 0.20 in 0.10 in - ()
Sea Level Pressure  
Sea Level Pressure 29.74 in    
Wind  
Wind Speed 5 mph ()    
Max Wind Speed 23 mph    
Max Gust Speed -    
Visibility 6.6 miles    
Events Fog , Rain    
Averages and records for this station are not official NWS values.
T = Trace of Precipitation, MM = Missing Value Source: Averaged Metar Reports

Daily Weather History Graph

Daily Weather History Graph

Search for Another Location

Airport:

Trip Planner

Search our weather history database for the weather conditions in past years. The results will help you decide how hot, cold, wet, or windy it might be!

Date:

Astronomy

May. 18, 2013 Rise Set
Actual Time 5:59 AM CEST 9:05 PM CEST
Civil Twilight 5:23 AM CEST 9:41 PM CEST
Nautical Twilight 4:37 AM CEST 10:27 PM CEST
Astronomical Twilight 3:41 AM CEST 11:24 PM CEST
Moon 1:28 PM CEST (5/18) 2:08 AM CEST (5/18)
Length of Visible Light 16h 17m
Length of Day
15h 06m
First Quarter, 52% of the Moon is Illuminated
May 18
First Quarter
May 25
Full
May 31
Last Quarter
Jun 8
New
Jun 16
First Quarter

Hourly Weather History & Observations

Time (CEST) Temp. Windchill Dew Point Humidity Pressure Visibility Wind Dir Wind Speed Gust Speed Precip Events Conditions
12:00 AM 48 °F - 46 °F 88% 29.79 in - ENE 3.5 mph - -  
12:20 AM 46.4 °F - 46.4 °F 100% 29.77 in 6.2 mi Variable 2.3 mph - N/A   Mostly Cloudy
12:50 AM 46.4 °F - 46.4 °F 100% 29.77 in 6.2 mi Variable 2.3 mph - N/A   Mostly Cloudy
1:00 AM 47 °F - 45 °F 90% 29.80 in - NW 2.3 mph - -  
1:20 AM 46.4 °F - 44.6 °F 93% 29.77 in 6.2 mi Variable 2.3 mph - N/A   Scattered Clouds
1:50 AM 44.6 °F - 44.6 °F 100% 29.77 in 6.2 mi Variable 2.3 mph - N/A   Scattered Clouds
2:00 AM 46 °F - 44 °F 88% 29.81 in 19 mi North 4.6 mph - -   Partly Cloudy
2:20 AM 44.6 °F - 42.8 °F 93% 29.77 in 6.2 mi Variable 2.3 mph - N/A   Scattered Clouds
2:50 AM 42.8 °F - 42.8 °F 100% 29.77 in 6.2 mi Calm Calm - N/A   Partly Cloudy
3:00 AM 44 °F - 43 °F 93% 29.82 in - NW 2.3 mph - -  
3:50 AM 42.8 °F - 42.8 °F 100% 29.77 in 6.2 mi Variable 1.2 mph - N/A Fog Shallow Fog
4:00 AM 43 °F - 42 °F 94% 29.82 in - North 2.3 mph - -  
4:20 AM 41.0 °F - 41.0 °F 100% 29.77 in 6.2 mi Variable 1.2 mph - N/A Fog Shallow Fog
4:50 AM 41.0 °F - 41.0 °F 100% 29.77 in 6.2 mi Variable 2.3 mph - N/A Fog Shallow Fog
5:20 AM 41.0 °F - 41.0 °F 100% 29.77 in 6.2 mi Calm Calm - N/A Fog Shallow Fog
5:50 AM 41.0 °F - 41.0 °F 100% 29.77 in 6.2 mi Variable 2.3 mph - N/A   Mostly Cloudy
6:00 AM 42 °F - 41 °F 94% 29.82 in - North 3.5 mph - -  
6:20 AM 42.8 °F 41.1 °F 42.8 °F 100% 29.77 in 6.2 mi Variable 3.5 mph - N/A   Scattered Clouds
6:50 AM 42.8 °F - 42.8 °F 100% 29.80 in 6.2 mi Variable 2.3 mph - N/A   Partly Cloudy
7:00 AM 42 °F - 40 °F 92% 29.83 in - North 4.6 mph - -  
7:20 AM 42.8 °F - 42.8 °F 100% 29.80 in 6.2 mi Variable 2.3 mph - N/A   Scattered Clouds
7:50 AM 44.6 °F - 44.6 °F 100% 29.80 in 6.2 mi Variable 2.3 mph - N/A   Scattered Clouds
8:00 AM 46 °F - 43 °F 87% 29.83 in 12 mi NE 3.5 mph - -   Partly Cloudy
8:20 AM 48.2 °F - 46.4 °F 93% 29.80 in 6.2 mi NE 5.8 mph - N/A   Scattered Clouds
8:50 AM 50.0 °F - 44.6 °F 82% 29.80 in 6.2 mi ENE 4.6 mph - N/A   Scattered Clouds
9:00 AM 49 °F - 44 °F 78% 29.81 in - ENE 3.5 mph - -  
9:20 AM 51.8 °F - 46.4 °F 82% 29.77 in 6.2 mi North 4.6 mph - N/A   Mostly Cloudy
9:50 AM 51.8 °F - 46.4 °F 82% 29.77 in 6.2 mi NE 9.2 mph - N/A   Mostly Cloudy
10:00 AM 50 °F - 44 °F 75% 29.79 in - NE 6.9 mph - -  
10:20 AM 50.0 °F - 46.4 °F 87% 29.77 in 6.2 mi NE 8.1 mph - N/A   Mostly Cloudy
10:50 AM 53.6 °F - 46.4 °F 77% 29.77 in 6.2 mi NE 5.8 mph - N/A   Mostly Cloudy
11:20 AM 53.6 °F - 44.6 °F 72% 29.74 in 6.2 mi NE 8.1 mph - N/A   Mostly Cloudy
11:50 AM 53.6 °F - 46.4 °F 77% 29.74 in 6.2 mi ENE 8.1 mph - N/A   Mostly Cloudy
12:00 PM 55 °F - 45 °F 61% 29.73 in - NE 10.4 mph - -  
12:20 PM 55.4 °F - 44.6 °F 67% 29.71 in 6.2 mi NE 8.1 mph - N/A   Mostly Cloudy
12:50 PM 57.2 °F - 46.4 °F 67% 29.71 in 6.2 mi NE 5.8 mph - N/A   Overcast
1:00 PM 57 °F - 46 °F 58% 29.71 in - NE 8.1 mph - -  
1:20 PM 57.2 °F - 46.4 °F 67% 29.71 in 6.2 mi ENE 5.8 mph - N/A   Overcast
1:50 PM 59.0 °F - 46.4 °F 63% 29.68 in 6.2 mi ENE 8.1 mph - N/A   Overcast
2:00 PM 58 °F - 45 °F 51% 29.69 in 22 mi NE 5.8 mph - -   Overcast
2:20 PM 60.8 °F - 46.4 °F 59% 29.68 in 6.2 mi Variable 3.5 mph - N/A   Overcast
2:50 PM 60.8 °F - 48.2 °F 63% 29.68 in 6.2 mi NE 5.8 mph - N/A   Overcast
3:00 PM 60 °F - 46 °F 50% 29.67 in - NE 8.1 mph - -  
3:20 PM 60.8 °F - 48.2 °F 63% 29.68 in 6.2 mi NE 6.9 mph - N/A   Mostly Cloudy
3:50 PM 60.8 °F - 48.2 °F 63% 29.68 in 6.2 mi NE 4.6 mph - N/A   Mostly Cloudy
4:00 PM 60 °F - 46 °F 49% 29.65 in - ENE 4.6 mph - -  
4:20 PM 60.8 °F - 48.2 °F 63% 29.68 in 6.2 mi Variable 1.2 mph - N/A   Mostly Cloudy
4:50 PM 60.8 °F - 48.2 °F 63% 29.65 in 6.2 mi WSW 3.5 mph - N/A   Mostly Cloudy
5:20 PM 60.8 °F - 48.2 °F 63% 29.68 in 6.2 mi WSW 4.6 mph - N/A   Mostly Cloudy
5:50 PM 60.8 °F - 50.0 °F 68% 29.65 in 6.2 mi WSW 6.9 mph - N/A   Mostly Cloudy
6:00 PM 60 °F - 49 °F 56% 29.65 in - WSW 6.9 mph - -  
6:20 PM 59.0 °F - 48.2 °F 67% 29.65 in 6.2 mi SW 8.1 mph - N/A   Mostly Cloudy
6:50 PM 59.0 °F - 50.0 °F 72% 29.68 in 6.2 mi WSW 8.1 mph - N/A   Mostly Cloudy
7:00 PM 58 °F - 48 °F 61% 29.67 in - WSW 6.9 mph - -  
7:20 PM 59.0 °F - 48.2 °F 67% 29.68 in 6.2 mi SW 10.4 mph - N/A   Mostly Cloudy
7:50 PM 57.2 °F - 48.2 °F 72% 29.68 in 6.2 mi SSW 10.4 mph - N/A Rain Light Rain
8:00 PM 57 °F - 46 °F 57% 29.68 in 25 mi SSW 12.7 mph - - Rain Light Rain
8:20 PM 57.2 °F - 48.2 °F 72% 29.68 in 6.2 mi SSW 15.0 mph - N/A Rain Light Rain
8:50 PM 55.4 °F - 46.4 °F 72% 29.68 in 6.2 mi SSW 15.0 mph - N/A Rain Light Rain
9:00 PM 56 °F - 45 °F 57% 29.70 in - SSW 15.0 mph - -  
9:20 PM 55.4 °F - 46.4 °F 72% 29.71 in 6.2 mi SSW 17.3 mph - N/A Rain Light Rain
9:50 PM 53.6 °F - 48.2 °F 82% 29.71 in 6.2 mi SSW 21.9 mph - N/A Rain Light Rain
10:00 PM 52 °F - 44 °F 67% 29.73 in - SSW 23.0 mph - -  
10:20 PM 51.8 °F - 46.4 °F 82% 29.74 in 6.2 mi SSW 20.7 mph - N/A Rain Light Rain
10:50 PM 51.8 °F - 44.6 °F 76% 29.74 in 6.2 mi SSW 18.4 mph - N/A Rain Light Rain
11:20 PM 50.0 °F - 42.8 °F 76% 29.74 in 6.2 mi SSW 16.1 mph - N/A Rain Light Rain
11:50 PM 50.0 °F - 42.8 °F 76% 29.77 in 6.2 mi SSW 17.3 mph - N/A Rain Light Rain